Regional Weather Roundup
Issued by NWS

Home | Current Version | Previous Version | Graphics & Text | Print | Product List | Glossary On
Versions: 1 2 3 4 5 6 7 8 9 10 11 12 13 14 15 16 17 18 19 20 21 22 23 24 25 26 27 28 29 30 31 32 33 34 35 36 37 38 39 40 41 42 43 44 45 46 47 48 49 50
000
ASUS43 KOAX 221902
RWRNE

WEATHER ROUNDUP FOR NEBRASKA
NATIONAL WEATHER SERVICE OMAHA NE
200 PM CDT SUN APR 22 2018

NOTES: SATELLITE DATA IS BEING USED TO AUGMENT CLOUD COVER ABOVE
       12000 FEET.
       "FAIR" INDICATES FEW OR NO CLOUDS BELOW 12,000 FEET WITH NO
       SIGNIFICANT WEATHER AND/OR OBSTRUCTIONS TO VISIBILITY.


NEZ001>004-019>022-054>056-222000-
NEBRASKA PANHANDLE

CITY           SKY/WX    TMP DP  RH WIND       PRES   REMARKS
SCOTTSBLUFF    SUNNY     54  42  64 VRB3      30.16F
ALLIANCE       SUNNY     53  41  63 VRB5      30.16F
CHADRON        MOSUNNY   59  40  49 CALM      30.13F
GORDON         FAIR      54  40  59 S6        30.16F
KIMBALL        SUNNY     57  36  46 N7        30.16F
SIDNEY         PTSUNNY   53  32  44 NW5       30.18F
$$

NEZ057>060-069>072-079>082-222000-
SOUTHWEST NEBRASKA

CITY           SKY/WX    TMP DP  RH WIND       PRES   REMARKS
NORTH PLATTE   PTSUNNY   56  38  50 S6        30.21F
IMPERIAL       CLOUDY    50  37  61 E5        30.21F
LEXINGTON      PTSUNNY   55  40  58 N3        30.22F
MCCOOK         PTSUNNY   54  39  57 SE9       30.21F
OGALLALA       CLOUDY    50  38  63 CALM      30.21F
$$

NEZ005>010-023>029-035>040-094-222000-
NORTH CENTRAL NEBRASKA

CITY           SKY/WX    TMP DP  RH WIND       PRES   REMARKS
VALENTINE      SUNNY     58  37  45 S10       30.19F
AINSWORTH      MOSUNNY   56  38  50 S10G17    30.21F
BROKEN BOW     PTSUNNY   56  40  55 SE8       30.22F
O`NEILL        SUNNY     61  28  28 SE8       30.23F
ORD            SUNNY     59  33  37 VRB7      30.20F
THEDFORD       MOSUNNY   57  38  48 S8        30.21F
$$

NEZ041-046>049-061>064-073>077-083>087-222000-
SOUTH CENTRAL NEBRASKA

CITY           SKY/WX    TMP DP  RH WIND       PRES   REMARKS
GRAND ISLAND   SUNNY     61  36  39 E10       30.20F
AURORA         SUNNY     62  32  32 E9        30.19F
HASTINGS       SUNNY     61  38  42 NE9G18    30.20F
HEBRON         CLOUDY    61  34  36 NE14      30.18F
HOLDREGE       MOSUNNY   54  39  57 NE3       30.21F
KEARNEY        SUNNY     58  37  45 NE6       30.21F
YORK             N/A     63  32  31 E8G23     30.19F
$$

NEZ011>018-030>034-042>045-222000-
NORTHEAST NEBRASKA

CITY           SKY/WX    TMP DP  RH WIND       PRES   REMARKS
NORFOLK        SUNNY     63  30  28 VRB3      30.20F
ALBION         SUNNY     62  32  32 E6        30.21F
BLAIR          SUNNY     67  33  28 NE13      30.18F
COLUMBUS       SUNNY     65  32  29 E12G21    30.20F
FREMONT        CLOUDY    64  33  32 NE6       30.21F
TEKAMAH        CLOUDY    66  29  24 N9        30.20F
WAYNE          SUNNY     62  32  31 NE12      30.22F
$$

NEZ050>053-065>068-078-088>093-222000-
SOUTHEAST NEBRASKA

CITY           SKY/WX    TMP DP  RH WIND       PRES   REMARKS
LINCOLN        CLOUDY    64  34  32 NE10G20   30.20F
OMAHA EPPLEY   MOSUNNY   70  32  24 NE12      30.18F
BEATRICE       CLOUDY    62  39  44 N13       30.17F
FALLS CITY     SUNNY     64  39  39 VRB3      30.14F
NEBRASKA CITY  CLOUDY    65  35  33 NE8       30.16F
PLATTSMOUTH    CLOUDY    67  31  26 NE12G17   30.17F
$$

NEZ044-045-051>053-067-222000-
OMAHA AREA

CITY           SKY/WX    TMP DP  RH WIND       PRES   REMARKS
OMAHA EPPLEY   MOSUNNY   70  32  24 NE12      30.18F
BLAIR          SUNNY     67  33  28 NE13      30.18F
FREMONT        CLOUDY    64  33  32 NE6       30.21F
MILLARD        MOSUNNY   67  33  27 NE6       30.18F
PLATTSMOUTH    CLOUDY    67  31  26 NE12G17   30.17F
WAHOO          CLOUDY    63  28  26 NE12G17   30.20F
$$




USA.gov is the U.S. government's official web portal to all federal, state and local government web resources and services.